KT2UU-13 Weather Reports


time (UTC)temp
F
wind
direction
speed
knots
gust
knots
rain 1hr
in
rain 24hr
in
rain mn
in
humidity
%
barometer
mb
20260509151149 62 178 0.9 1.7 0.00 0.00 0.00 93 1014.6
20260509150647 62 160 0.0 0.9 0.00 0.00 0.00 93 1014.7
20260509150145 62 191 1.7 2.6 0.00 0.00 0.00 93 1014.5
20260509145641 62 197 0.0 0.0 0.00 0.00 0.00 94 1014.5
20260509145136 61 154 0.0 0.9 0.00 0.00 0.00 94 1014.6
20260509144633 61 193 2.6 2.6 0.00 0.00 0.00 94 1014.4
20260509144131 61 188 0.0 1.7 0.00 0.00 0.00 94 1014.4
20260509143628 61 154 0.0 0.9 0.00 0.00 0.00 95 1014.5
20260509143125 61 167 0.0 0.9 0.00 0.00 0.00 94 1014.3
20260509142620 61 195 0.0 0.0 0.00 0.00 0.00 93 1014.2
20260509142117 61 195 0.0 1.7 0.00 0.00 0.00 94 1014.0
20260509141613 61 195 0.0 0.0 0.00 0.00 0.00 93 1013.9
20260509141109 61 195 0.0 0.0 0.00 0.00 0.00 94 1013.7
20260509140607 61 195 0.0 0.9 0.00 0.00 0.00 93 1013.8
20260509140105 61 195 0.0 0.9 0.00 0.00 0.00 94 1013.4
20260509135601 61 137 0.0 0.9 0.00 0.00 0.00 93 1013.4
20260509135059 61 168 0.0 0.0 0.00 0.00 0.00 93 1013.5
20260509134556 61 198 0.0 0.0 0.00 0.00 0.00 93 1013.4
20260509134053 61 198 0.0 0.0 0.00 0.00 0.00 93 1013.3
20260509133550 61 225 0.9 1.7 0.00 0.00 0.00 92 1013.4
20260509133048 61 186 0.0 0.0 0.00 0.00 0.00 93 1013.3
20260509132546 60 203 0.0 0.0 0.00 0.00 0.00 93 1013.3
20260509132044 60 204 0.0 0.9 0.00 0.00 0.00 93 1013.4
20260509131539 60 146 0.0 0.0 0.00 0.00 0.00 94 1013.5
20260509131036 60 178 0.0 0.0 0.00 0.00 0.00 94 1013.3
20260509130531 60 179 0.0 0.0 0.00 0.00 0.00 95 1013.3
20260509130024 59 185 0.0 0.0 0.00 0.00 0.00 95 1013.4
20260509125520 59 209 0.0 0.0 0.00 0.00 0.00 96 1013.3
20260509125016 59 227 0.0 0.0 0.00 0.00 0.00 96 1013.4
20260509124513 59 353 0.0 0.0 0.00 0.00 0.00 96 1013.4
20260509124011 59 353 0.0 0.0 0.00 0.00 0.00 96 1013.3
20260509123508 59 353 0.0 0.0 0.00 0.00 0.00 96 1013.3
20260509123004 59 353 0.0 0.0 0.00 0.00 0.00 96 1013.4
20260509122501 59 353 0.0 0.0 0.00 0.00 0.00 96 1013.2
20260509121958 59 353 0.0 0.0 0.00 0.00 0.00 96 1013.4
20260509121454 59 353 0.0 0.0 0.00 0.00 0.00 96 1013.2
20260509120952 58 359 0.0 0.0 0.00 0.00 0.00 96 1013.0
20260509120450 58 353 0.0 0.0 0.00 0.00 0.00 96 1013.2
20260509115948 58 353 0.0 0.0 0.00 0.00 0.00 97 1013.1
20260509115445 58 353 0.0 0.0 0.00 0.00 0.00 97 1012.9
20260509114942 58 359 0.0 0.0 0.00 0.00 0.00 97 1013.0
20260509114441 58 353 0.0 0.0 0.00 0.00 0.00 98 1012.8
20260509113940 57 353 0.0 0.0 0.00 0.00 0.00 98 1012.8
20260509113437 57 353 0.0 0.0 0.00 0.00 0.00 98 1013.0
20260509112933 57 353 0.0 0.0 0.00 0.00 0.00 98 1012.9
20260509112431 57 353 0.0 0.0 0.00 0.00 0.00 98 1013.0
20260509111927 57 353 0.0 0.0 0.00 0.00 0.00 98 1013.0
20260509111425 57 353 0.0 0.0 0.00 0.00 0.00 98 1012.7
20260509110922 57 353 0.0 0.0 0.00 0.00 0.00 98 1012.6
20260509110418 56 353 0.0 0.0 0.00 0.00 0.00 98 1012.8
20260509105916 56 353 0.0 0.0 0.00 0.00 0.00 98 1012.8
20260509105415 56 353 0.0 0.0 0.00 0.00 0.00 98 1012.8
20260509104911 56 353 0.0 0.0 0.00 0.00 0.00 98 1012.8
20260509104408 56 353 0.0 0.0 0.00 0.00 0.00 98 1012.8
20260509103906 56 353 0.0 0.0 0.00 0.00 0.00 99 1012.8
20260509103402 56 353 0.0 0.0 0.00 0.00 0.00 99 1012.8
20260509102901 56 353 0.0 0.0 0.00 0.00 0.00 99 1013.1
20260509102358 55 353 0.0 0.0 0.00 0.00 0.00 99 1012.9
20260509101854 55 353 0.0 0.0 0.00 0.00 0.00 99 1012.8
20260509101350 55 353 0.0 0.0 0.00 0.00 0.00 99 1012.6
20260509100848 55 353 0.0 0.0 0.00 0.00 0.00 99 1012.7
20260509100345 55 353 0.0 0.0 0.00 0.00 0.00 99 1012.6
20260509095841 55 353 0.0 0.0 0.00 0.00 0.00 99 1013.1
20260509095339 55 353 0.0 0.0 0.00 0.00 0.00 99 1012.9
20260509094836 55 353 0.0 0.0 0.00 0.00 0.00 99 1013.1
20260509094332 55 353 0.0 0.0 0.00 0.00 0.00 99 1013.0
20260509093830 55 353 0.0 0.0 0.00 0.00 0.00 99 1013.0
20260509093327 55 353 0.0 0.0 0.00 0.00 0.00 99 1013.1
20260509092826 55 353 0.0 0.0 0.00 0.00 0.00 99 1013.1
20260509092323 54 353 0.0 0.0 0.00 0.00 0.00 99 1013.1
20260509091821 54 353 0.0 0.0 0.00 0.00 0.00 99 1013.3
20260509091318 54 353 0.0 0.0 0.00 0.00 0.00 99 1013.2
20260509090815 54 353 0.0 0.9 0.00 0.00 0.00 99 1012.8
20260509090312 54 307 0.0 0.9 0.00 0.00 0.00 99 1013.0
20260509085809 54 187 0.0 0.0 0.00 0.00 0.00 99 1013.2
20260509085307 54 187 0.0 0.0 0.00 0.00 0.00 99 1013.1
20260509084803 54 187 0.0 0.0 0.00 0.00 0.00 99 1013.2
20260509084300 54 174 0.0 0.0 0.00 0.00 0.00 99 1013.1
20260509083758 54 171 0.0 0.0 0.00 0.00 0.00 98 1012.7
20260509083254 54 151 0.0 0.0 0.00 0.00 0.00 98 1012.8
20260509082751 54 151 0.0 0.0 0.00 0.00 0.00 99 1012.8
20260509082247 54 151 0.0 0.0 0.00 0.00 0.00 99 1012.7
20260509081744 54 223 0.0 0.0 0.00 0.00 0.00 99 1012.6
20260509081242 54 223 0.0 0.0 0.00 0.00 0.00 99 1012.6
20260509080740 54 223 0.0 0.0 0.00 0.00 0.00 99 1013.0
20260509080237 54 224 0.0 0.0 0.00 0.00 0.00 99 1013.1
20260509075736 54 224 0.0 0.0 0.00 0.00 0.00 99 1013.2
20260509075233 53 224 0.0 0.0 0.00 0.00 0.00 99 1013.3
20260509074729 54 224 0.0 0.0 0.00 0.00 0.00 99 1013.1
20260509074227 54 224 0.0 0.0 0.00 0.00 0.00 99 1013.0
20260509073723 53 224 0.0 0.0 0.00 0.00 0.00 99 1013.1
20260509073220 53 224 0.0 0.0 0.00 0.00 0.00 99 1013.0
20260509072716 54 224 0.0 0.0 0.00 0.00 0.00 99 1012.8
20260509072213 54 224 0.0 0.0 0.00 0.00 0.00 99 1012.8
20260509071710 54 224 0.0 0.0 0.00 0.00 0.00 99 1012.9
20260509071207 53 224 0.0 0.0 0.00 0.00 0.00 99 1013.3
20260509070704 53 224 0.0 0.0 0.00 0.00 0.00 99 1013.2
20260509070200 53 224 0.0 0.0 0.00 0.00 0.00 99 1013.1
20260509065656 53 264 0.0 0.0 0.00 0.00 0.00 99 1013.2
20260509065153 53 264 0.0 0.0 0.00 0.00 0.00 99 1013.0
20260509064650 53 264 0.0 0.0 0.00 0.00 0.00 99 1013.1
20260509064147 53 264 0.0 0.0 0.00 0.00 0.00 99 1013.0
20260509063644 53 264 0.0 0.0 0.00 0.00 0.00 99 1013.1
20260509063140 53 264 0.0 0.0 0.00 0.00 0.00 99 1013.4
20260509062638 53 278 0.0 0.9 0.00 0.00 0.00 98 1013.2
20260509062135 53 9 0.0 0.0 0.00 0.00 0.00 98 1013.2
20260509061631 53 9 0.0 0.0 0.00 0.00 0.00 98 1013.3
20260509061129 53 9 0.0 0.0 0.00 0.00 0.00 98 1013.5
20260509060627 53 9 0.0 0.0 0.00 0.00 0.00 98 1013.5
20260509060122 54 9 0.0 0.0 0.00 0.00 0.00 98 1013.4
20260509055618 53 9 0.0 0.0 0.00 0.00 0.00 98 1013.8
20260509055114 53 9 0.0 0.0 0.00 0.00 0.00 98 1013.9
20260509054611 53 8 0.0 0.0 0.00 0.00 0.00 97 1014.1
20260509054109 53 21 0.0 0.0 0.00 0.00 0.00 97 1014.3
20260509053607 54 8 0.0 0.0 0.00 0.00 0.00 97 1014.5
20260509053104 54 8 0.0 0.0 0.00 0.00 0.00 97 1014.5
20260509052602 54 8 0.0 0.0 0.00 0.00 0.00 97 1014.4
20260509052059 54 8 0.0 0.0 0.00 0.00 0.00 97 1014.5
20260509051557 54 8 0.0 0.0 0.00 0.00 0.00 96 1014.5
20260509051054 54 8 0.0 0.0 0.00 0.00 0.00 96 1014.7
20260509050550 54 8 0.0 0.0 0.00 0.00 0.00 95 1014.3
20260509050047 55 8 0.0 0.0 0.00 0.00 0.00 95 1014.4
20260509045545 55 21 0.0 0.0 0.00 0.00 0.00 94 1014.3
20260509045041 56 8 0.0 0.0 0.00 0.00 0.00 94 1014.3
20260509044539 56 8 0.0 0.0 0.00 0.00 0.00 94 1014.1
20260509044036 56 8 0.0 0.0 0.00 0.00 0.00 94 1014.1
20260509043532 56 8 0.0 0.0 0.00 0.00 0.00 94 1014.0
20260509043028 56 8 0.0 0.0 0.00 0.00 0.00 93 1014.0
20260509042524 56 8 0.0 0.0 0.00 0.00 0.00 94 1014.1
20260509042021 56 8 0.0 0.0 0.00 0.00 0.00 93 1014.1
20260509041517 56 9 0.0 0.0 0.00 0.00 0.00 94 1014.4
20260509041015 56 9 0.0 0.0 0.00 0.00 0.00 93 1014.4
20260509040513 56 9 0.0 0.0 0.00 0.00 0.00 93 1014.6
20260509040005 56 11 0.0 0.0 0.00 0.00 0.00 93 1014.8
20260509035501 56 11 0.0 0.0 0.00 0.00 0.00 93 1014.8
20260509034957 56 24 0.0 0.0 0.00 0.00 0.00 93 1014.9
20260509034456 56 11 0.0 0.0 0.00 0.00 0.00 93 1014.9
20260509033952 56 11 0.0 0.0 0.00 0.00 0.00 93 1014.7
20260509033449 56 11 0.0 0.0 0.00 0.00 0.00 93 1014.7
20260509032946 56 11 0.0 0.0 0.00 0.00 0.00 93 1015.0
20260509032443 56 11 0.0 0.0 0.00 0.00 0.00 93 1015.1
20260509031941 56 11 0.0 0.0 0.00 0.00 0.00 93 1015.0
20260509031438 57 11 0.0 0.0 0.00 0.00 0.00 93 1015.1
20260509030935 57 11 0.0 0.0 0.00 0.00 0.00 93 1015.1
20260509030433 56 11 0.0 0.0 0.00 0.00 0.00 93 1015.1
20260509025930 56 11 0.0 0.0 0.00 0.00 0.00 92 1015.0
20260509025426 56 11 0.0 0.0 0.00 0.00 0.00 92 1015.1
20260509024921 57 11 0.0 0.0 0.00 0.00 0.00 92 1015.6
20260509024417 57 11 0.0 0.0 0.00 0.00 0.00 92 1015.5
20260509023914 57 11 0.0 0.0 0.00 0.00 0.00 92 1015.5
20260509023412 57 11 0.0 0.0 0.00 0.00 0.00 92 1015.4
20260509022908 57 11 0.0 0.0 0.00 0.00 0.00 92 1015.4
20260509022405 57 11 0.0 0.0 0.00 0.00 0.00 92 1015.5
20260509021903 57 11 0.0 0.0 0.00 0.00 0.00 91 1015.2
20260509021400 57 11 0.0 0.0 0.00 0.00 0.00 91 1015.2
20260509020857 58 11 0.0 0.0 0.00 0.00 0.00 90 1015.0
20260509020355 58 11 0.0 0.0 0.00 0.00 0.00 90 1015.1
20260509015852 58 11 0.0 0.0 0.00 0.00 0.00 90 1014.9
20260509015350 58 11 0.0 0.0 0.00 0.00 0.00 90 1014.9
20260509014847 58 11 0.0 0.0 0.00 0.00 0.00 89 1015.0
20260509014343 58 11 0.0 0.0 0.00 0.00 0.00 89 1014.9
20260509013840 58 11 0.0 0.0 0.00 0.00 0.00 89 1015.0
20260509013336 58 11 0.0 0.0 0.00 0.00 0.00 89 1015.0
20260509012832 59 11 0.0 0.0 0.00 0.00 0.00 89 1014.9
20260509012329 59 11 0.0 0.0 0.00 0.00 0.00 89 1014.7
20260509011827 59 11 0.0 0.0 0.00 0.00 0.00 89 1014.7
20260509011324 59 11 0.0 0.0 0.00 0.00 0.00 89 1014.5
20260509010822 59 11 0.0 0.0 0.00 0.00 0.00 88 1014.8
20260509010319 59 11 0.0 0.0 0.00 0.00 0.00 87 1014.8
20260509005816 60 11 0.0 0.0 0.00 0.00 0.00 87 1014.9
20260509005314 60 11 0.0 0.0 0.00 0.00 0.00 86 1014.9
20260509004813 60 11 0.0 0.0 0.00 0.00 0.00 88 1015.0
20260509004305 60 11 0.0 0.0 0.00 0.00 0.00 88 1014.7
20260509003803 61 11 0.0 0.0 0.00 0.00 0.00 88 1014.8
20260509003301 61 11 0.0 0.0 0.00 0.00 0.00 88 1015.0
20260509002757 61 11 0.0 0.0 0.00 0.00 0.00 88 1014.7
20260509002255 61 11 0.0 0.0 0.00 0.00 0.00 88 1014.7
20260509001752 61 11 0.0 0.0 0.00 0.00 0.00 88 1014.7
20260509001248 62 11 0.0 0.0 0.00 0.00 0.00 88 1014.8
20260509000746 62 11 0.0 0.0 0.00 0.00 0.00 87 1014.7
20260509000243 62 11 0.0 0.0 0.00 0.00 0.00 86 1014.6
20260508235740 63 21 0.0 0.0 0.00 0.00 0.00 85 1014.7
20260508235236 63 11 0.0 0.0 0.00 0.00 0.00 85 1014.8
20260508234734 63 11 0.0 0.0 0.00 0.00 0.00 84 1014.5
20260508234229 64 11 0.0 0.0 0.00 0.00 0.00 83 1014.6
20260508233724 64 11 0.0 0.0 0.00 0.00 0.00 82 1014.7
20260508233221 64 11 0.0 0.0 0.00 0.00 0.00 81 1014.6
20260508232719 65 11 0.0 0.0 0.00 0.00 0.00 79 1014.7
20260508232215 65 11 0.0 0.0 0.00 0.00 0.00 76 1014.7
20260508231713 65 21 0.0 0.0 0.00 0.00 0.00 74 1014.5
20260508231210 66 21 0.0 0.0 0.00 0.00 0.00 73 1014.6
20260508230707 66 11 0.0 0.0 0.00 0.00 0.00 70 1014.6
20260508230203 67 11 0.0 0.0 0.00 0.00 0.00 69 1014.6
20260508225701 67 11 0.0 0.0 0.00 0.00 0.00 70 1014.8
20260508225156 67 11 0.0 0.0 0.00 0.00 0.00 67 1014.6
20260508224655 67 11 0.0 0.0 0.00 0.00 0.00 65 1014.8
20260508224152 67 11 0.0 0.0 0.00 0.00 0.00 67 1014.8
20260508223649 67 11 0.0 0.0 0.00 0.00 0.00 65 1014.9
20260508223147 67 11 0.0 0.0 0.00 0.00 0.00 65 1014.7
20260508222644 67 11 0.0 0.0 0.00 0.00 0.00 62 1015.0
20260508222141 67 11 0.0 0.0 0.00 0.00 0.00 61 1015.0
20260508221637 67 11 0.0 0.0 0.00 0.00 0.00 60 1015.0
20260508221133 68 11 0.0 0.0 0.00 0.00 0.00 58 1015.0
20260508220630 68 11 0.0 0.0 0.00 0.00 0.00 62 1015.0
20260508220126 68 11 0.0 0.0 0.00 0.00 0.00 64 1015.0
20260508215623 68 11 0.0 0.0 0.00 0.00 0.00 63 1014.9
20260508215120 69 10 0.0 0.0 0.00 0.00 0.00 62 1015.1
20260508214617 69 10 0.0 0.0 0.00 0.00 0.00 61 1014.9
20260508214114 69 10 0.0 0.0 0.00 0.00 0.00 60 1015.1
20260508213611 70 10 0.0 0.0 0.00 0.00 0.00 61 1014.9
20260508213107 70 10 0.0 0.0 0.00 0.00 0.00 59 1014.9
20260508212603 69 10 0.0 0.0 0.00 0.00 0.00 59 1014.7
20260508212100 70 12 0.0 0.0 0.00 0.00 0.00 54 1014.9
20260508211555 70 9 0.9 0.9 0.00 0.00 0.00 59 1014.7
20260508211052 70 6 0.0 0.0 0.00 0.00 0.00 56 1014.6
20260508210548 70 1 0.0 0.0 0.00 0.00 0.00 54 1015.0
20260508210046 70 349 0.0 0.0 0.00 0.00 0.00 53 1014.8
20260508205543 70 8 0.0 0.0 0.00 0.00 0.00 55 1014.9
20260508205039 71 11 0.9 1.7 0.00 0.00 0.00 50 1015.0
20260508204536 71 10 0.0 0.0 0.00 0.00 0.00 53 1014.8
20260508204031 71 8 0.0 0.0 0.00 0.00 0.00 51 1015.2
20260508203528 71 5 0.0 0.9 0.00 0.00 0.00 49 1014.9
20260508203024 72 1 0.0 0.9 0.00 0.00 0.00 48 1015.3
20260508202521 72 301 0.0 0.9 0.00 0.00 0.00 45 1015.3
20260508202018 71 15 0.0 1.7 0.00 0.00 0.00 49 1015.1
20260508201514 72 78 0.0 0.0 0.00 0.00 0.00 49 1015.3
20260508201011 71 112 0.0 0.0 0.00 0.00 0.00 52 1015.3
20260508200508 71 4 0.0 0.9 0.00 0.00 0.00 51 1015.0
20260508200004 71 14 0.0 0.0 0.00 0.00 0.00 52 1015.1
20260508195501 71 1 1.7 2.6 0.00 0.00 0.00 48 1015.2
20260508194956 72 150 0.0 0.0 0.00 0.00 0.00 51 1015.1
20260508194454 72 139 0.0 0.0 0.00 0.00 0.00 51 1015.2
20260508193951 72 176 0.0 0.0 0.00 0.00 0.00 45 1015.4
20260508193447 72 213 0.0 0.9 0.00 0.00 0.00 43 1015.5
20260508192944 71 193 0.0 0.0 0.00 0.00 0.00 45 1015.5
20260508192441 71 135 0.9 1.7 0.00 0.00 0.00 49 1015.8
20260508191938 71 149 0.0 0.9 0.00 0.00 0.00 49 1016.1
20260508191435 71 92 0.0 1.7 0.00 0.00 0.00 48 1016.1
20260508190931 71 136 0.9 1.7 0.00 0.00 0.00 46 1016.1
20260508190429 71 0 0.0 0.9 0.00 0.00 0.00 48 1016.1
20260508185925 71 226 0.0 1.7 0.00 0.00 0.00 50 1016.3
20260508185423 72 270 0.0 1.7 0.00 0.00 0.00 46 1016.2
20260508184920 72 184 0.9 0.9 0.00 0.00 0.00 48 1016.3
20260508184417 71 254 0.0 1.7 0.00 0.00 0.00 48 1016.4
20260508183914 71 113 0.0 0.9 0.00 0.00 0.00 50 1016.3
20260508183410 72 90 0.0 1.7 0.00 0.00 0.00 47 1016.4
20260508182905 72 58 0.0 1.7 0.00 0.00 0.00 45 1016.3
20260508182403 71 332 0.0 1.7 0.00 0.00 0.00 43 1016.5
20260508181858 70 350 0.0 0.0 0.00 0.00 0.00 46 1016.7
20260508181355 70 15 0.0 2.6 0.00 0.00 0.00 46 1016.7
20260508180852 70 341 1.7 2.6 0.00 0.00 0.00 44 1016.6
20260508180349 71 5 0.0 2.6 0.00 0.00 0.00 43 1016.8
20260508175845 71 237 0.9 2.6 0.00 0.00 0.00 48 1016.8
20260508175342 70 101 0.0 1.7 0.00 0.00 0.00 49 1016.9
20260508174840 70 43 0.9 0.9 0.00 0.00 0.00 45 1017.0
20260508174337 70 191 0.0 0.0 0.00 0.00 0.00 47 1016.9
20260508173834 69 209 0.0 0.9 0.00 0.00 0.00 45 1017.0
20260508173331 69 357 0.0 2.6 0.00 0.00 0.00 43 1016.9
20260508172826 69 137 0.0 0.9 0.00 0.00 0.00 45 1017.1
20260508172324 69 127 0.0 1.7 0.00 0.00 0.00 43 1017.4
20260508171820 70 129 1.7 2.6 0.00 0.00 0.00 46 1017.3
20260508171316 69 213 0.9 1.7 0.00 0.00 0.00 40 1017.5
20260508170813 69 4 0.0 0.9 0.00 0.00 0.00 45 1017.4
20260508170312 69 16 0.0 0.9 0.00 0.00 0.00 49 1017.5
20260508165808 68 165 1.7 2.6 0.00 0.00 0.00 47 1017.5
20260508165307 67 343 0.0 1.7 0.00 0.00 0.00 48 1017.6
20260508164801 68 265 0.0 1.7 0.00 0.00 0.00 45 1017.7
20260508164258 68 331 0.0 1.7 0.00 0.00 0.00 47 1017.7
20260508163756 68 92 0.0 1.7 0.00 0.00 0.00 48 1018.0
20260508163254 68 172 0.9 1.7 0.00 0.00 0.00 46 1018.1
20260508162749 67 5 0.0 0.0 0.00 0.00 0.00 47 1018.0
20260508162246 67 26 0.0 0.9 0.00 0.00 0.00 58 1018.1
20260508161743 67 356 0.0 1.7 0.00 0.00 0.00 49 1018.3
20260508161240 67 125 0.9 1.7 0.00 0.00 0.00 52 1018.4
20260508160738 66 36 0.0 1.7 0.00 0.00 0.00 50 1018.4
20260508160237 66 142 0.0 0.9 0.00 0.00 0.00 53 1018.5
20260508155732 67 353 0.9 1.7 0.00 0.00 0.00 49 1018.6
20260508155230 66 123 0.0 0.9 0.00 0.00 0.00 56 1018.5
20260508154726 65 359 1.7 2.6 0.00 0.00 0.00 52 1018.7
20260508154224 65 14 0.0 0.9 0.00 0.00 0.00 52 1018.6
20260508153720 65 320 0.9 3.5 0.00 0.00 0.00 49 1018.7
20260508153217 65 20 0.9 1.7 0.00 0.00 0.00 52 1018.8
20260508152714 64 223 0.0 0.9 0.00 0.00 0.00 60 1018.8
20260508152210 65 8 0.0 0.9 0.00 0.00 0.00 59 1018.8
20260508151707 64 9 0.0 2.6 0.00 0.00 0.00 57 1018.7